This is the latest recevied weather packets stored in our database for station/object N8XHB. If no packets are shown the sender has not sent any weather packets the latest 10 day(s).
| Time | Temp. | Humidity | Pressure | Rain* | Wind** | Luminosity | Snow |
|---|---|---|---|---|---|---|---|
| 1777846904 | 13.33° C | 55% | 1008.7 hPa | 0 mm | - | 69 W/m² | - |
| 1777846602 | 12.78° C | 57% | 1008.8 hPa | 0 mm | - | 106 W/m² | - |
| 1777846299 | 12.78° C | 56% | 1008.8 hPa | 0 mm | - | 141 W/m² | - |
| 1777845996 | 12.78° C | 57% | 1008.8 hPa | 0 mm | - | 143 W/m² | - |
| 1777845692 | 12.78° C | 56% | 1008.9 hPa | 0 mm | - | 161 W/m² | - |
| 1777845390 | 12.78° C | 56% | 1009 hPa | 0 mm | - | 151 W/m² | - |
| 1777845086 | 12.78° C | 56% | 1008.9 hPa | 0 mm | - | 133 W/m² | - |
| 1777844785 | 12.78° C | 57% | 1008.7 hPa | 0 mm | - | 139 W/m² | - |
| 1777844481 | 12.78° C | 58% | 1009.1 hPa | 0 mm | - | 121 W/m² | - |
| 1777844180 | 12.78° C | 58% | 1008.9 hPa | 0 mm | - | 104 W/m² | - |
| 1777843876 | 12.22° C | 58% | 1009 hPa | 0 mm | - | 100 W/m² | - |
| 1777843574 | 12.22° C | 58% | 1008.9 hPa | 0 mm | - | 92 W/m² | - |
| 1777843271 | 12.22° C | 59% | 1009.1 hPa | 0 mm | - | 88 W/m² | - |
| 1777842969 | 12.22° C | 58% | 1008.9 hPa | 0 mm | - | 80 W/m² | - |
| 1777842664 | 12.22° C | 59% | 1009 hPa | 0 mm | - | 73 W/m² | - |
| 1777842360 | 12.22° C | 58% | 1009 hPa | 0 mm | - | 70 W/m² | - |
| 1777842056 | 12.22° C | 59% | 1009.1 hPa | 0 mm | - | 68 W/m² | - |
| 1777841753 | 12.22° C | 59% | 1009.1 hPa | 0 mm | - | 72 W/m² | - |
| 1777841449 | 12.22° C | 59% | 1009 hPa | 0 mm | - | 76 W/m² | - |
| 1777841147 | 12.22° C | 59% | 1009.1 hPa | 0 mm | - | 103 W/m² | - |
| 1777840844 | 11.67° C | 60% | 1009.5 hPa | 0 mm | - | 105 W/m² | - |
| 1777840541 | 11.67° C | 60% | 1009.6 hPa | 0 mm | - | 95 W/m² | - |
| 1777840238 | 11.67° C | 60% | 1009.8 hPa | 0 mm | - | 87 W/m² | - |
| 1777839936 | 11.67° C | 60% | 1009.9 hPa | 0 mm | - | 83 W/m² | - |
| 1777839633 | 11.67° C | 59% | 1009.7 hPa | 0 mm | - | 64 W/m² | - |
* Rain latest hour (hover to see other rain measurements)
** Current wind speed in m/s (hover to see current wind gust speed)